Year,Month,Day,Hour,Minute,Value (Times are PST for temperature in C)
2016,06,12,00,00,12.00
2016,06,12,00,01,11.90
2016,06,12,00,02,11.90
2016,06,12,00,03,11.90
2016,06,12,00,04,11.90
2016,06,12,00,05,11.80
2016,06,12,00,06,11.80
2016,06,12,00,07,11.70
2016,06,12,00,08,11.70
2016,06,12,00,09,11.70
2016,06,12,00,10,11.60
2016,06,12,00,11,11.50
2016,06,12,00,12,11.50
2016,06,12,00,13,11.40
2016,06,12,00,14,11.40
2016,06,12,00,15,11.40
2016,06,12,00,16,11.30
2016,06,12,00,17,11.30
2016,06,12,00,18,11.30
2016,06,12,00,19,11.30
2016,06,12,00,20,11.30
2016,06,12,00,21,11.30
2016,06,12,00,22,11.30
2016,06,12,00,23,11.30
2016,06,12,00,24,11.30
2016,06,12,00,25,11.30
2016,06,12,00,26,11.30
2016,06,12,00,27,11.30
2016,06,12,00,28,11.20
2016,06,12,00,29,11.20
2016,06,12,00,30,11.20
2016,06,12,00,31,11.20
2016,06,12,00,32,11.20
2016,06,12,00,33,11.20
2016,06,12,00,34,11.10
2016,06,12,00,35,11.10
2016,06,12,00,36,11.10
2016,06,12,00,37,11.10
2016,06,12,00,38,11.10
2016,06,12,00,39,11.10
2016,06,12,00,40,11.10
2016,06,12,00,41,11.10
2016,06,12,00,42,11.10
2016,06,12,00,43,11.10
2016,06,12,00,44,11.10
2016,06,12,00,45,11.10
2016,06,12,00,46,11.10
2016,06,12,00,47,11.10
2016,06,12,00,48,11.10
2016,06,12,00,49,11.10
2016,06,12,00,50,11.10
2016,06,12,00,51,11.10
2016,06,12,00,52,11.10
2016,06,12,00,53,11.10
2016,06,12,00,54,11.10
2016,06,12,00,55,11.10
2016,06,12,00,56,11.00
2016,06,12,00,57,11.00
2016,06,12,00,58,11.00
2016,06,12,00,59,11.00
2016,06,12,01,00,11.00
2016,06,12,01,01,11.00
2016,06,12,01,02,11.00
2016,06,12,01,03,11.00
2016,06,12,01,04,11.00
2016,06,12,01,05,11.00
2016,06,12,01,06,10.90
2016,06,12,01,07,10.90
2016,06,12,01,08,10.90
2016,06,12,01,09,10.90
2016,06,12,01,10,10.90
2016,06,12,01,11,10.90
2016,06,12,01,12,10.90
2016,06,12,01,13,10.90
2016,06,12,01,14,10.80
2016,06,12,01,15,10.80
2016,06,12,01,16,10.80
2016,06,12,01,17,10.80
2016,06,12,01,18,10.80
2016,06,12,01,19,10.80
2016,06,12,01,20,10.80
2016,06,12,01,21,10.80
2016,06,12,01,22,10.80
2016,06,12,01,23,10.80
2016,06,12,01,24,10.80
2016,06,12,01,25,10.70
2016,06,12,01,26,10.70
2016,06,12,01,27,10.70
2016,06,12,01,28,10.70
2016,06,12,01,29,10.70
2016,06,12,01,30,10.70
2016,06,12,01,31,10.70
2016,06,12,01,32,10.70
2016,06,12,01,33,10.70
2016,06,12,01,34,10.70
2016,06,12,01,35,10.70
2016,06,12,01,36,10.70
2016,06,12,01,37,10.70
2016,06,12,01,38,10.60
2016,06,12,01,39,10.60
2016,06,12,01,40,10.60
2016,06,12,01,41,10.60
2016,06,12,01,42,10.60
2016,06,12,01,43,10.60
2016,06,12,01,44,10.60
2016,06,12,01,45,10.60
2016,06,12,01,46,10.60
2016,06,12,01,47,10.60
2016,06,12,01,48,10.60
2016,06,12,01,49,10.60
2016,06,12,01,50,10.60
2016,06,12,01,51,10.60
2016,06,12,01,52,10.60
2016,06,12,01,53,10.60
2016,06,12,01,54,10.50
2016,06,12,01,55,10.60
2016,06,12,01,56,10.50
2016,06,12,01,57,10.50
2016,06,12,01,58,10.50
2016,06,12,01,59,10.50
2016,06,12,02,00,10.50
2016,06,12,02,01,10.50
2016,06,12,02,02,10.50
2016,06,12,02,03,10.50
2016,06,12,02,04,10.50
2016,06,12,02,05,10.50
2016,06,12,02,06,10.50
2016,06,12,02,07,10.40
2016,06,12,02,08,10.40
2016,06,12,02,09,10.40
2016,06,12,02,10,10.40
2016,06,12,02,11,10.30
2016,06,12,02,12,10.30
2016,06,12,02,13,10.30
2016,06,12,02,14,10.20
2016,06,12,02,15,10.20
2016,06,12,02,16,10.20
2016,06,12,02,17,10.20
2016,06,12,02,18,10.10
2016,06,12,02,19,10.10
2016,06,12,02,20,10.10
2016,06,12,02,21,10.00
2016,06,12,02,22,10.00
2016,06,12,02,23,10.00
2016,06,12,02,24,9.90
2016,06,12,02,25,9.90
2016,06,12,02,26,9.90
2016,06,12,02,27,9.90
2016,06,12,02,28,9.90
2016,06,12,02,29,9.80
2016,06,12,02,30,9.80
2016,06,12,02,31,9.80
2016,06,12,02,32,9.80
2016,06,12,02,33,9.80
2016,06,12,02,34,9.80
2016,06,12,02,35,9.80
2016,06,12,02,36,9.70
2016,06,12,02,37,9.70
2016,06,12,02,38,9.70
2016,06,12,02,39,9.70
2016,06,12,02,40,9.70
2016,06,12,02,41,9.60
2016,06,12,02,42,9.60
2016,06,12,02,43,9.60
2016,06,12,02,44,9.50
2016,06,12,02,45,9.50
2016,06,12,02,46,9.50
2016,06,12,02,47,9.40
2016,06,12,02,48,9.40
2016,06,12,02,49,9.40
2016,06,12,02,50,9.30
2016,06,12,02,51,9.30
2016,06,12,02,52,9.30
2016,06,12,02,53,9.20
2016,06,12,02,54,9.20
2016,06,12,02,55,9.20
2016,06,12,02,56,9.20
2016,06,12,02,57,9.10
2016,06,12,02,58,9.10
2016,06,12,02,59,9.10
2016,06,12,03,00,9.10
2016,06,12,03,01,9.10
2016,06,12,03,02,9.10
2016,06,12,03,03,9.10
2016,06,12,03,04,9.10
2016,06,12,03,05,9.10
2016,06,12,03,06,9.10
2016,06,12,03,07,9.10
2016,06,12,03,08,9.10
2016,06,12,03,09,9.10
2016,06,12,03,10,9.10
2016,06,12,03,11,9.10
2016,06,12,03,12,9.00
2016,06,12,03,13,9.00
2016,06,12,03,14,9.00
2016,06,12,03,15,9.00
2016,06,12,03,16,9.00
2016,06,12,03,17,9.00
2016,06,12,03,18,9.00
2016,06,12,03,19,9.00
2016,06,12,03,20,9.00
2016,06,12,03,21,8.90
2016,06,12,03,22,8.90
2016,06,12,03,23,8.90
2016,06,12,03,24,8.90
2016,06,12,03,25,8.90
2016,06,12,03,26,8.90
2016,06,12,03,27,8.80
2016,06,12,03,28,8.80
2016,06,12,03,29,8.80
2016,06,12,03,30,8.80
2016,06,12,03,31,8.80
2016,06,12,03,32,8.80
2016,06,12,03,33,8.70
2016,06,12,03,34,8.70
2016,06,12,03,35,8.70
2016,06,12,03,36,8.70
2016,06,12,03,37,8.70
2016,06,12,03,38,8.70
2016,06,12,03,39,8.70
2016,06,12,03,40,8.70
2016,06,12,03,41,8.70
2016,06,12,03,42,8.70
2016,06,12,03,43,8.60
2016,06,12,03,44,8.60
2016,06,12,03,45,8.60
2016,06,12,03,46,8.60
2016,06,12,03,47,8.60
2016,06,12,03,48,8.60
2016,06,12,03,49,8.60
2016,06,12,03,50,8.60
2016,06,12,03,51,8.60
2016,06,12,03,52,8.60
2016,06,12,03,53,8.50
2016,06,12,03,54,8.50
2016,06,12,03,55,8.50
2016,06,12,03,56,8.50
2016,06,12,03,57,8.50
2016,06,12,03,58,8.50
2016,06,12,03,59,8.50
2016,06,12,04,00,8.50
2016,06,12,04,01,8.50
2016,06,12,04,02,8.50
2016,06,12,04,03,8.40
2016,06,12,04,04,8.40
2016,06,12,04,05,8.40
2016,06,12,04,06,8.40
2016,06,12,04,07,8.40
2016,06,12,04,08,8.40
2016,06,12,04,09,8.40
2016,06,12,04,10,8.40
2016,06,12,04,11,8.40
2016,06,12,04,12,8.40
2016,06,12,04,13,8.40
2016,06,12,04,14,8.40
2016,06,12,04,15,8.40
2016,06,12,04,16,8.40
2016,06,12,04,17,8.40
2016,06,12,04,18,8.40
2016,06,12,04,19,8.40
2016,06,12,04,20,8.40
2016,06,12,04,21,8.40
2016,06,12,04,22,8.40
2016,06,12,04,23,8.40
2016,06,12,04,24,8.40
2016,06,12,04,25,8.40
2016,06,12,04,26,8.40
2016,06,12,04,27,8.40
2016,06,12,04,28,8.40
2016,06,12,04,29,8.40
2016,06,12,04,30,8.40
2016,06,12,04,31,8.40
2016,06,12,04,32,8.40
2016,06,12,04,33,8.40
2016,06,12,04,34,8.40
2016,06,12,04,35,8.30
2016,06,12,04,36,8.30
2016,06,12,04,37,8.30
2016,06,12,04,38,8.30
2016,06,12,04,39,8.30
2016,06,12,04,40,8.30
2016,06,12,04,41,8.30
2016,06,12,04,42,8.30
2016,06,12,04,43,8.30
2016,06,12,04,44,8.30
2016,06,12,04,45,8.30
2016,06,12,04,46,8.30
2016,06,12,04,47,8.20
2016,06,12,04,48,8.20
2016,06,12,04,49,8.20
2016,06,12,04,50,8.20
2016,06,12,04,51,8.20
2016,06,12,04,52,8.20
2016,06,12,04,53,8.20
2016,06,12,04,54,8.20
2016,06,12,04,55,8.10
2016,06,12,04,56,8.10
2016,06,12,04,57,8.10
2016,06,12,04,58,8.10
2016,06,12,04,59,8.10
2016,06,12,05,00,8.00
2016,06,12,05,01,8.00
2016,06,12,05,02,8.00
2016,06,12,05,03,8.00
2016,06,12,05,04,7.90
2016,06,12,05,05,7.90
2016,06,12,05,06,7.90
2016,06,12,05,07,7.90
2016,06,12,05,08,7.90
2016,06,12,05,09,7.90
2016,06,12,05,10,7.90
2016,06,12,05,11,7.90
2016,06,12,05,12,7.90
2016,06,12,05,13,7.90
2016,06,12,05,14,7.90
2016,06,12,05,15,7.90
2016,06,12,05,16,7.90
2016,06,12,05,17,7.90
2016,06,12,05,18,7.90
2016,06,12,05,19,7.90
2016,06,12,05,20,7.90
2016,06,12,05,21,7.90
2016,06,12,05,22,7.90
2016,06,12,05,23,7.90
2016,06,12,05,24,7.90
2016,06,12,05,25,7.90
2016,06,12,05,26,7.90
2016,06,12,05,27,7.90
2016,06,12,05,28,7.90
2016,06,12,05,29,7.90
2016,06,12,05,30,7.80
2016,06,12,05,31,7.80
2016,06,12,05,32,7.80
2016,06,12,05,33,7.90
2016,06,12,05,34,7.90
2016,06,12,05,35,7.90
2016,06,12,05,36,7.90
2016,06,12,05,37,7.90
2016,06,12,05,38,7.90
2016,06,12,05,39,7.90
2016,06,12,05,40,7.90
2016,06,12,05,41,7.90
2016,06,12,05,42,7.90
2016,06,12,05,43,8.00
2016,06,12,05,44,8.00
2016,06,12,05,45,8.00
2016,06,12,05,46,8.00
2016,06,12,05,47,8.00
2016,06,12,05,48,8.00
2016,06,12,05,49,8.00
2016,06,12,05,50,8.00
2016,06,12,05,51,8.00
2016,06,12,05,52,8.10
2016,06,12,05,53,8.00
2016,06,12,05,54,8.10
2016,06,12,05,55,8.10
2016,06,12,05,56,8.10
2016,06,12,05,57,8.10
2016,06,12,05,58,8.10
2016,06,12,05,59,8.10
2016,06,12,06,00,8.10
2016,06,12,06,01,8.10
2016,06,12,06,02,8.20
2016,06,12,06,03,8.20
2016,06,12,06,04,8.20
2016,06,12,06,05,8.20
2016,06,12,06,06,8.20
2016,06,12,06,07,8.20
2016,06,12,06,08,8.20
2016,06,12,06,09,8.20
2016,06,12,06,10,8.20
2016,06,12,06,11,8.20
2016,06,12,06,12,8.20
2016,06,12,06,13,8.30
2016,06,12,06,14,8.30
2016,06,12,06,15,8.30
2016,06,12,06,16,8.30
2016,06,12,06,17,8.30
2016,06,12,06,18,8.30
2016,06,12,06,19,8.30
2016,06,12,06,20,8.30
2016,06,12,06,21,8.30
2016,06,12,06,22,8.30
2016,06,12,06,23,8.30
2016,06,12,06,24,8.30
2016,06,12,06,25,8.30
2016,06,12,06,26,8.30
2016,06,12,06,27,8.30
2016,06,12,06,28,8.40
2016,06,12,06,29,8.40
2016,06,12,06,30,8.40
2016,06,12,06,31,8.40
2016,06,12,06,32,8.40
2016,06,12,06,33,8.40
2016,06,12,06,34,8.40
2016,06,12,06,35,8.40
2016,06,12,06,36,8.40
2016,06,12,06,37,8.40
2016,06,12,06,38,8.40
2016,06,12,06,39,8.50
2016,06,12,06,40,8.50
2016,06,12,06,41,8.50
2016,06,12,06,42,8.50
2016,06,12,06,43,8.50
2016,06,12,06,44,8.60
2016,06,12,06,45,8.60
2016,06,12,06,46,8.60
2016,06,12,06,47,8.60
2016,06,12,06,48,8.60
2016,06,12,06,49,8.60
2016,06,12,06,50,8.70
2016,06,12,06,51,8.70
2016,06,12,06,52,8.70
2016,06,12,06,53,8.70
2016,06,12,06,54,8.70
2016,06,12,06,55,8.80
2016,06,12,06,56,8.80
2016,06,12,06,57,8.80
2016,06,12,06,58,8.80
2016,06,12,06,59,8.80
2016,06,12,07,00,8.80
2016,06,12,07,01,8.90
2016,06,12,07,02,8.90
2016,06,12,07,03,8.90
2016,06,12,07,04,8.90
2016,06,12,07,05,9.00
2016,06,12,07,06,9.00
2016,06,12,07,07,9.00
2016,06,12,07,08,9.10
2016,06,12,07,09,9.10
2016,06,12,07,10,9.10
2016,06,12,07,11,9.10
2016,06,12,07,12,9.20
2016,06,12,07,13,9.20
2016,06,12,07,14,9.20
2016,06,12,07,15,9.20
2016,06,12,07,16,9.30
2016,06,12,07,17,9.30
2016,06,12,07,18,9.30
2016,06,12,07,19,9.30
2016,06,12,07,20,9.40
2016,06,12,07,21,9.40
2016,06,12,07,22,9.40
2016,06,12,07,23,9.40
2016,06,12,07,24,9.40
2016,06,12,07,25,9.50
2016,06,12,07,26,9.50
2016,06,12,07,27,9.50
2016,06,12,07,28,9.60
2016,06,12,07,29,9.60
2016,06,12,07,30,9.60
2016,06,12,07,31,9.60
2016,06,12,07,32,9.60
2016,06,12,07,33,9.70
2016,06,12,07,34,9.70
2016,06,12,07,35,9.70
2016,06,12,07,36,9.70
2016,06,12,07,37,9.70
2016,06,12,07,38,9.80
2016,06,12,07,39,9.80
2016,06,12,07,40,9.80
2016,06,12,07,41,9.80
2016,06,12,07,42,9.80
2016,06,12,07,43,9.90
2016,06,12,07,44,9.90
2016,06,12,07,45,9.90
2016,06,12,07,46,9.90
2016,06,12,07,47,10.00
2016,06,12,07,48,10.00
2016,06,12,07,49,10.10
2016,06,12,07,50,10.10
2016,06,12,07,51,10.20
2016,06,12,07,52,10.20
2016,06,12,07,53,10.20
2016,06,12,07,54,10.30
2016,06,12,07,55,10.30
2016,06,12,07,56,10.30
2016,06,12,07,57,10.40
2016,06,12,07,58,10.40
2016,06,12,07,59,10.40
2016,06,12,08,00,10.50
2016,06,12,08,01,10.50
2016,06,12,08,02,10.60
2016,06,12,08,03,10.60
2016,06,12,08,04,10.70
2016,06,12,08,05,10.70
2016,06,12,08,06,10.70
2016,06,12,08,07,10.80
2016,06,12,08,08,10.80
2016,06,12,08,09,10.80
2016,06,12,08,10,10.90
2016,06,12,08,11,10.90
2016,06,12,08,12,10.90
2016,06,12,08,13,10.90
2016,06,12,08,14,11.00
2016,06,12,08,15,11.00
2016,06,12,08,16,11.00
2016,06,12,08,17,11.00
2016,06,12,08,18,11.10
2016,06,12,08,19,11.10
2016,06,12,08,20,11.10
2016,06,12,08,21,11.10
2016,06,12,08,22,11.10
2016,06,12,08,23,11.00
2016,06,12,08,24,11.00
2016,06,12,08,25,11.00
2016,06,12,08,26,11.00
2016,06,12,08,27,11.00
2016,06,12,08,28,11.00
2016,06,12,08,29,11.10
2016,06,12,08,30,11.20
2016,06,12,08,31,11.30
2016,06,12,08,32,11.40
2016,06,12,08,33,11.50
2016,06,12,08,34,11.60
2016,06,12,08,35,11.80
2016,06,12,08,36,11.90
2016,06,12,08,37,12.00
2016,06,12,08,38,12.10
2016,06,12,08,39,12.20
2016,06,12,08,40,12.30
2016,06,12,08,41,12.30
2016,06,12,08,42,12.40
2016,06,12,08,43,12.50
2016,06,12,08,44,12.60
2016,06,12,08,45,12.60
2016,06,12,08,46,12.70
2016,06,12,08,47,12.60
2016,06,12,08,48,12.60
2016,06,12,08,49,12.60
2016,06,12,08,50,12.60
2016,06,12,08,51,12.70
2016,06,12,08,52,12.70
2016,06,12,08,53,12.80
2016,06,12,08,54,12.90
2016,06,12,08,55,13.00
2016,06,12,08,56,13.10
2016,06,12,08,57,13.10
2016,06,12,08,58,13.20
2016,06,12,08,59,13.20
2016,06,12,09,00,13.20
2016,06,12,09,01,13.20
2016,06,12,09,02,13.20
2016,06,12,09,03,13.30
2016,06,12,09,04,13.30
2016,06,12,09,05,13.30
2016,06,12,09,06,13.30
2016,06,12,09,07,13.20
2016,06,12,09,08,13.20
2016,06,12,09,09,13.10
2016,06,12,09,10,13.10
2016,06,12,09,11,13.10
2016,06,12,09,12,13.10
2016,06,12,09,13,13.10
2016,06,12,09,14,13.20
2016,06,12,09,15,13.20
2016,06,12,09,16,13.20
2016,06,12,09,17,13.20
2016,06,12,09,18,13.20
2016,06,12,09,19,13.20
2016,06,12,09,20,13.20
2016,06,12,09,21,13.30
2016,06,12,09,22,13.30
2016,06,12,09,23,13.30
2016,06,12,09,24,13.40
2016,06,12,09,25,13.40
2016,06,12,09,26,13.30
2016,06,12,09,27,13.30
2016,06,12,09,28,13.30
2016,06,12,09,29,13.30
2016,06,12,09,30,13.30
2016,06,12,09,31,13.30
2016,06,12,09,32,13.30
2016,06,12,09,33,13.30
2016,06,12,09,34,13.30
2016,06,12,09,35,13.40
2016,06,12,09,36,13.40
2016,06,12,09,37,13.50
2016,06,12,09,38,13.60
2016,06,12,09,39,13.70
2016,06,12,09,40,13.80
2016,06,12,09,41,13.80
2016,06,12,09,42,13.80
2016,06,12,09,43,13.90
2016,06,12,09,44,13.90
2016,06,12,09,45,14.00
2016,06,12,09,46,14.00
2016,06,12,09,47,14.10
2016,06,12,09,48,14.20
2016,06,12,09,49,14.30
2016,06,12,09,50,14.30
2016,06,12,09,51,14.30
2016,06,12,09,52,14.30
2016,06,12,09,53,14.20
2016,06,12,09,54,14.20
2016,06,12,09,55,14.20
2016,06,12,09,56,14.30
2016,06,12,09,57,14.40
2016,06,12,09,58,14.50
2016,06,12,09,59,14.60
2016,06,12,10,00,14.60
2016,06,12,10,01,14.60
2016,06,12,10,02,14.50
2016,06,12,10,03,14.50
2016,06,12,10,04,14.50
2016,06,12,10,05,14.50
2016,06,12,10,06,14.50
2016,06,12,10,07,14.40
2016,06,12,10,08,14.50
2016,06,12,10,09,14.50
2016,06,12,10,10,14.60
2016,06,12,10,11,14.70
2016,06,12,10,12,14.80
2016,06,12,10,13,14.80
2016,06,12,10,14,14.80
2016,06,12,10,15,14.90
2016,06,12,10,16,14.90
2016,06,12,10,17,14.90
2016,06,12,10,18,14.90
2016,06,12,10,19,14.80
2016,06,12,10,20,14.70
2016,06,12,10,21,14.70
2016,06,12,10,22,14.70
2016,06,12,10,23,14.70
2016,06,12,10,24,14.70
2016,06,12,10,25,14.70
2016,06,12,10,26,14.80
2016,06,12,10,27,14.80
2016,06,12,10,28,14.90
2016,06,12,10,29,14.80
2016,06,12,10,30,14.80
2016,06,12,10,31,14.80
2016,06,12,10,32,14.80
2016,06,12,10,33,14.80
2016,06,12,10,34,14.90
2016,06,12,10,35,15.00
2016,06,12,10,36,15.00
2016,06,12,10,37,15.10
2016,06,12,10,38,15.10
2016,06,12,10,39,15.10
2016,06,12,10,40,15.10
2016,06,12,10,41,15.10
2016,06,12,10,42,15.10
2016,06,12,10,43,15.00
2016,06,12,10,44,15.00
2016,06,12,10,45,14.90
2016,06,12,10,46,14.90
2016,06,12,10,47,14.90
2016,06,12,10,48,14.90
2016,06,12,10,49,14.90
2016,06,12,10,50,14.90
2016,06,12,10,51,14.90
2016,06,12,10,52,14.90
2016,06,12,10,53,15.00
2016,06,12,10,54,14.90
2016,06,12,10,55,14.90
2016,06,12,10,56,14.80
2016,06,12,10,57,14.80
2016,06,12,10,58,14.80
2016,06,12,10,59,14.70
2016,06,12,11,00,14.70
2016,06,12,11,01,14.70
2016,06,12,11,02,14.70
2016,06,12,11,03,14.80
2016,06,12,11,04,14.80
2016,06,12,11,05,14.80
2016,06,12,11,06,14.80
2016,06,12,11,07,14.90
2016,06,12,11,08,14.90
2016,06,12,11,09,14.90
2016,06,12,11,10,14.80
2016,06,12,11,11,14.70
2016,06,12,11,12,14.70
2016,06,12,11,13,14.70
2016,06,12,11,14,14.70
2016,06,12,11,15,14.70
2016,06,12,11,16,14.70
2016,06,12,11,17,14.70
2016,06,12,11,18,14.70
2016,06,12,11,19,14.70
2016,06,12,11,20,14.70
2016,06,12,11,21,14.70
2016,06,12,11,22,14.70
2016,06,12,11,23,14.80
2016,06,12,11,24,14.80
2016,06,12,11,25,14.80
2016,06,12,11,26,14.80
2016,06,12,11,27,14.80
2016,06,12,11,28,14.80
2016,06,12,11,29,14.80
2016,06,12,11,30,14.90
2016,06,12,11,31,15.00
2016,06,12,11,32,15.10
2016,06,12,11,33,15.10
2016,06,12,11,34,15.20
2016,06,12,11,35,15.20
2016,06,12,11,36,15.20
2016,06,12,11,37,15.20
2016,06,12,11,38,15.30
2016,06,12,11,39,15.30
2016,06,12,11,40,15.30
2016,06,12,11,41,15.30
2016,06,12,11,42,15.30
2016,06,12,11,43,15.30
2016,06,12,11,44,15.30
2016,06,12,11,45,15.40
2016,06,12,11,46,15.40
2016,06,12,11,47,15.40
2016,06,12,11,48,15.30
2016,06,12,11,49,15.30
2016,06,12,11,50,15.30
2016,06,12,11,51,15.30
2016,06,12,11,52,15.30
2016,06,12,11,53,15.30
2016,06,12,11,54,15.40
2016,06,12,11,55,15.40
2016,06,12,11,56,15.40
2016,06,12,11,57,15.40
2016,06,12,11,58,15.40
2016,06,12,11,59,15.30
2016,06,12,12,00,15.30
2016,06,12,12,01,15.40
2016,06,12,12,02,15.30
2016,06,12,12,03,15.30
2016,06,12,12,04,15.30
2016,06,12,12,05,15.30
2016,06,12,12,06,15.30
2016,06,12,12,07,15.30
2016,06,12,12,08,15.30
2016,06,12,12,09,15.30
2016,06,12,12,10,15.20
2016,06,12,12,11,15.20
2016,06,12,12,12,15.20
2016,06,12,12,13,15.20
2016,06,12,12,14,15.20
2016,06,12,12,15,15.30
2016,06,12,12,16,15.30
2016,06,12,12,17,15.20
2016,06,12,12,18,15.20
2016,06,12,12,19,15.20
2016,06,12,12,20,15.20
2016,06,12,12,21,15.20
2016,06,12,12,22,15.20
2016,06,12,12,23,15.10
2016,06,12,12,24,15.10
2016,06,12,12,25,15.20
2016,06,12,12,26,15.20
2016,06,12,12,27,15.20
2016,06,12,12,28,15.20
2016,06,12,12,29,15.20
2016,06,12,12,30,15.20
2016,06,12,12,31,15.30
2016,06,12,12,32,15.30
2016,06,12,12,33,15.30
2016,06,12,12,34,15.30
2016,06,12,12,35,15.30
2016,06,12,12,36,15.30
2016,06,12,12,37,15.30
2016,06,12,12,38,15.30
2016,06,12,12,39,15.30
2016,06,12,12,40,15.30
2016,06,12,12,41,15.20
2016,06,12,12,42,15.20
2016,06,12,12,43,15.20
2016,06,12,12,44,15.20
2016,06,12,12,45,15.20
2016,06,12,12,46,15.30
2016,06,12,12,47,15.30
2016,06,12,12,48,15.40
2016,06,12,12,49,15.40
2016,06,12,12,50,15.50
2016,06,12,12,51,15.50
2016,06,12,12,52,15.40
2016,06,12,12,53,15.40
2016,06,12,12,54,15.40
2016,06,12,12,55,15.50
2016,06,12,12,56,15.40
2016,06,12,12,57,15.30
2016,06,12,12,58,15.30
2016,06,12,12,59,15.20
2016,06,12,13,00,15.20
2016,06,12,13,01,15.30
2016,06,12,13,02,15.30
2016,06,12,13,03,15.30
2016,06,12,13,04,15.40
2016,06,12,13,05,15.40
2016,06,12,13,06,15.50
2016,06,12,13,07,15.40
2016,06,12,13,08,15.40
2016,06,12,13,09,15.30
2016,06,12,13,10,15.20
2016,06,12,13,11,15.30
2016,06,12,13,12,15.30
2016,06,12,13,13,15.30
2016,06,12,13,14,15.30
2016,06,12,13,15,15.30
2016,06,12,13,16,15.30
2016,06,12,13,17,15.30
2016,06,12,13,18,15.30
2016,06,12,13,19,15.30
2016,06,12,13,20,15.30
2016,06,12,13,21,15.20
2016,06,12,13,22,15.20
2016,06,12,13,23,15.20
2016,06,12,13,24,15.20
2016,06,12,13,25,15.20
2016,06,12,13,26,15.20
2016,06,12,13,27,15.20
2016,06,12,13,28,15.20
2016,06,12,13,29,15.20
2016,06,12,13,30,15.30
2016,06,12,13,31,15.30
2016,06,12,13,32,15.30
2016,06,12,13,33,15.20
2016,06,12,13,34,15.10
2016,06,12,13,35,15.10
2016,06,12,13,36,15.10
2016,06,12,13,37,15.20
2016,06,12,13,38,15.20
2016,06,12,13,39,15.30
2016,06,12,13,40,15.30
2016,06,12,13,41,15.30
2016,06,12,13,42,15.30
2016,06,12,13,43,15.30
2016,06,12,13,44,15.20
2016,06,12,13,45,15.20
2016,06,12,13,46,15.10
2016,06,12,13,47,15.10
2016,06,12,13,48,15.00
2016,06,12,13,49,15.00
2016,06,12,13,50,15.00
2016,06,12,13,51,15.10
2016,06,12,13,52,15.10
2016,06,12,13,53,15.10
2016,06,12,13,54,15.10
2016,06,12,13,55,15.10
2016,06,12,13,56,15.10
2016,06,12,13,57,15.20
2016,06,12,13,58,15.20
2016,06,12,13,59,15.30
2016,06,12,14,00,15.40
2016,06,12,14,01,15.40
2016,06,12,14,02,15.40
2016,06,12,14,03,15.50
2016,06,12,14,04,15.50
2016,06,12,14,05,15.50
2016,06,12,14,06,15.50
2016,06,12,14,07,15.50
2016,06,12,14,08,15.40
2016,06,12,14,09,15.50
2016,06,12,14,10,15.50
2016,06,12,14,11,15.60
2016,06,12,14,12,15.60
2016,06,12,14,13,15.60
2016,06,12,14,14,15.60
2016,06,12,14,15,15.60
2016,06,12,14,16,15.60
2016,06,12,14,17,15.60
2016,06,12,14,18,15.60
2016,06,12,14,19,15.70
2016,06,12,14,20,15.70
2016,06,12,14,21,15.70
2016,06,12,14,22,15.70
2016,06,12,14,23,15.70
2016,06,12,14,24,15.70
2016,06,12,14,25,15.70
2016,06,12,14,26,15.70
2016,06,12,14,27,15.70
2016,06,12,14,28,15.80
2016,06,12,14,29,15.90
2016,06,12,14,30,15.90
2016,06,12,14,31,16.00
2016,06,12,14,32,16.10
2016,06,12,14,33,16.20
2016,06,12,14,34,16.30
2016,06,12,14,35,16.40
2016,06,12,14,36,16.40
2016,06,12,14,37,16.40
2016,06,12,14,38,16.30
2016,06,12,14,39,16.20
2016,06,12,14,40,16.20
2016,06,12,14,41,16.20
2016,06,12,14,42,16.10
2016,06,12,14,43,16.10
2016,06,12,14,44,16.10
2016,06,12,14,45,16.10
2016,06,12,14,46,16.10
2016,06,12,14,47,16.00
2016,06,12,14,48,16.00
2016,06,12,14,49,15.90
2016,06,12,14,50,16.00
2016,06,12,14,51,16.00
2016,06,12,14,52,16.00
2016,06,12,14,53,16.10
2016,06,12,14,54,16.10
2016,06,12,14,55,16.10
2016,06,12,14,56,16.00
2016,06,12,14,57,15.90
2016,06,12,14,58,15.90
2016,06,12,14,59,15.80
2016,06,12,15,00,15.80
2016,06,12,15,01,15.80
2016,06,12,15,02,15.70
2016,06,12,15,03,15.60
2016,06,12,15,04,15.60
2016,06,12,15,05,15.60
2016,06,12,15,06,15.60
2016,06,12,15,07,15.60
2016,06,12,15,08,15.50
2016,06,12,15,09,15.50
2016,06,12,15,10,15.40
2016,06,12,15,11,15.40
2016,06,12,15,12,15.40
2016,06,12,15,13,15.40
2016,06,12,15,14,15.40
2016,06,12,15,15,15.50
2016,06,12,15,16,15.50
2016,06,12,15,17,15.60
2016,06,12,15,18,15.60
2016,06,12,15,19,15.60
2016,06,12,15,20,15.60
2016,06,12,15,21,15.50
2016,06,12,15,22,15.50
2016,06,12,15,23,15.50
2016,06,12,15,24,15.50
2016,06,12,15,25,15.50
2016,06,12,15,26,15.50
2016,06,12,15,27,15.40
2016,06,12,15,28,15.40
2016,06,12,15,29,15.40
2016,06,12,15,30,15.30
2016,06,12,15,31,15.40
2016,06,12,15,32,15.40
2016,06,12,15,33,15.40
2016,06,12,15,34,15.40
2016,06,12,15,35,15.30
2016,06,12,15,36,15.30
2016,06,12,15,37,15.30
2016,06,12,15,38,15.30
2016,06,12,15,39,15.20
2016,06,12,15,40,15.30
2016,06,12,15,41,15.30
2016,06,12,15,42,15.30
2016,06,12,15,43,15.30
2016,06,12,15,44,15.30
2016,06,12,15,45,15.40
2016,06,12,15,46,15.30
2016,06,12,15,47,15.30
2016,06,12,15,48,15.40
2016,06,12,15,49,15.40
2016,06,12,15,50,15.40
2016,06,12,15,51,15.40
2016,06,12,15,52,15.40
2016,06,12,15,53,15.30
2016,06,12,15,54,15.30
2016,06,12,15,55,15.30
2016,06,12,15,56,15.30
2016,06,12,15,57,15.40
2016,06,12,15,58,15.40
2016,06,12,15,59,15.40
2016,06,12,16,00,15.40
2016,06,12,16,01,15.40
2016,06,12,16,02,15.30
2016,06,12,16,03,15.30
2016,06,12,16,04,15.30
2016,06,12,16,05,15.30
2016,06,12,16,06,15.30
2016,06,12,16,07,15.30
2016,06,12,16,08,15.40
2016,06,12,16,09,15.40
2016,06,12,16,10,15.40
2016,06,12,16,11,15.40
2016,06,12,16,12,15.40
2016,06,12,16,13,15.40
2016,06,12,16,14,15.40
2016,06,12,16,15,15.50
2016,06,12,16,16,15.50
2016,06,12,16,17,15.50
2016,06,12,16,18,15.50
2016,06,12,16,19,15.60
2016,06,12,16,20,15.50
2016,06,12,16,21,15.50
2016,06,12,16,22,15.50
2016,06,12,16,23,15.40
2016,06,12,16,24,15.50
2016,06,12,16,25,15.50
2016,06,12,16,26,15.50
2016,06,12,16,27,15.50
2016,06,12,16,28,15.50
2016,06,12,16,29,15.50
2016,06,12,16,30,15.50
2016,06,12,16,31,15.40
2016,06,12,16,32,15.40
2016,06,12,16,33,15.30
2016,06,12,16,34,15.30
2016,06,12,16,35,15.30
2016,06,12,16,36,15.40
2016,06,12,16,37,15.40
2016,06,12,16,38,15.40
2016,06,12,16,39,15.40
2016,06,12,16,40,15.40
2016,06,12,16,41,15.40
2016,06,12,16,42,15.40
2016,06,12,16,43,15.40
2016,06,12,16,44,15.50
2016,06,12,16,45,15.50
2016,06,12,16,46,15.50
2016,06,12,16,47,15.40
2016,06,12,16,48,15.40
2016,06,12,16,49,15.40
2016,06,12,16,50,15.40
2016,06,12,16,51,15.40
2016,06,12,16,52,15.40
2016,06,12,16,53,15.50
2016,06,12,16,54,15.50
2016,06,12,16,55,15.50
2016,06,12,16,56,15.50
2016,06,12,16,57,15.60
2016,06,12,16,58,15.60
2016,06,12,16,59,15.50
2016,06,12,17,00,15.40
2016,06,12,17,01,15.50
2016,06,12,17,02,15.50
2016,06,12,17,03,15.40
2016,06,12,17,04,15.40
2016,06,12,17,05,15.40
2016,06,12,17,06,15.40
2016,06,12,17,07,15.40
2016,06,12,17,08,15.40
2016,06,12,17,09,15.40
2016,06,12,17,10,15.40
2016,06,12,17,11,15.40
2016,06,12,17,12,15.40
2016,06,12,17,13,15.40
2016,06,12,17,14,15.40
2016,06,12,17,15,15.40
2016,06,12,17,16,15.30
2016,06,12,17,17,15.40
2016,06,12,17,18,15.40
2016,06,12,17,19,15.40
2016,06,12,17,20,15.50
2016,06,12,17,21,15.50
2016,06,12,17,22,15.60
2016,06,12,17,23,15.60
2016,06,12,17,24,15.60
2016,06,12,17,25,15.60
2016,06,12,17,26,15.60
2016,06,12,17,27,15.60
2016,06,12,17,28,15.60
2016,06,12,17,29,15.60
2016,06,12,17,30,15.50
2016,06,12,17,31,15.60
2016,06,12,17,32,15.60
2016,06,12,17,33,15.60